Santa Monica, CA

1:59 AM PST on November 15, 2019 (GMT -0800)
Santa Monica Municipal

Weather History for KSMO - October, 2019

Change the Weather History Date:

Sunday, October 20, 2019

  Actual Average Record
Temperature  
Mean Temperature 74 °F -  
Max Temperature 91 °F 75 °F 98 °F (1999)
Min Temperature 57 °F 57 °F 44 °F (1949)
Cooling Degree Days 9    
Growing Degree Days 24 (Base 50)    
Moisture  
Dew Point 49 °F    
Average Humidity 52    
Maximum Humidity 97    
Minimum Humidity 18    
Precipitation  
Precipitation 0.00 in - - ()
Sea Level Pressure  
Sea Level Pressure 29.87 in    
Wind  
Wind Speed 4 mph (North)    
Max Wind Speed 12 mph    
Max Gust Speed 20 mph    
Visibility 10 miles    
Events      
Averages and records for this station are not official NWS values.
T = Trace of Precipitation, MM = Missing Value Source: NWS Daily Summary

Daily Weather History Graph

Daily Weather History Graph

Search for Another Location

Airport or City:

Astronomy

Oct. 20, 2019 Rise Set
Actual Time 7:02 AM PDT 6:13 PM PDT
Civil Twilight 6:37 AM PDT 6:39 PM PDT
Nautical Twilight 6:08 AM PDT 7:08 PM PDT
Astronomical Twilight 5:39 AM PDT 7:37 PM PDT
Moon 11:38 PM PDT (10/20) 1:24 PM PDT (10/20)
Length of Visible Light 12h 01m
Length of Day
11h 10m
Waning Gibbous, 58% of the Moon is Illuminated
Oct 20
Waning Gibbous
Oct 21
Last Quarter
Oct 27
New
Nov 4
First Quarter
Nov 12
Full

Hourly Weather History & Observations

Time (PDT) Temp. Heat Index Dew Point Humidity Pressure Visibility Wind Dir Wind Speed Gust Speed Precip Events Conditions
12:51 AM 60.1 °F - 57.0 °F 90% 29.86 in 10.0 mi Calm Calm - N/A   Clear
1:51 AM 57.9 °F - 55.9 °F 93% 29.86 in 10.0 mi Calm Calm - N/A   Clear
2:51 AM 57.9 °F - 55.9 °F 93% 29.86 in 10.0 mi NNE 4.6 mph - N/A   Clear
3:51 AM 59.0 °F - 57.0 °F 93% 29.85 in 10.0 mi East 4.6 mph - N/A   Clear
4:51 AM 57.9 °F - 55.9 °F 93% 29.86 in 7.0 mi Calm Calm - N/A   Clear
5:51 AM 57.9 °F - 57.0 °F 97% 29.87 in 5.0 mi Calm Calm - N/A   Clear
6:51 AM 57.9 °F - 57.0 °F 97% 29.88 in 7.0 mi Variable 3.5 mph - N/A   Clear
7:51 AM 60.1 °F - 57.0 °F 90% 29.89 in 8.0 mi Variable 3.5 mph - N/A   Clear
8:51 AM 64.9 °F - 57.0 °F 75% 29.90 in 10.0 mi Variable 3.5 mph - N/A   Clear
9:51 AM 72.0 °F - 53.1 °F 51% 29.91 in 10.0 mi North - - N/A   Clear
10:51 AM 77.0 °F - 48.0 °F 36% 29.92 in 10.0 mi Variable 4.6 mph - N/A   Clear
11:51 AM 75.9 °F - 55.0 °F 48% 29.91 in 10.0 mi SW 10.4 mph - N/A   Clear
12:51 PM 77.0 °F - 53.1 °F 43% 29.90 in 10.0 mi SSW 8.1 mph - N/A   Clear
1:51 PM 80.1 °F 80.0 °F 54.0 °F 40% 29.87 in 10.0 mi SSW 10.4 mph - N/A   Clear
2:51 PM 84.0 °F 82.5 °F 53.1 °F 34% 29.84 in 10.0 mi SSW 9.2 mph - N/A   Clear
3:43 PM 90.0 °F - 42.1 °F 19% 29.83 in 10.0 mi Variable 6.9 mph - N/A   Clear
3:51 PM 91.0 °F - 42.1 °F 18% 29.83 in 10.0 mi Variable 4.6 mph - N/A   Clear
4:51 PM 89.1 °F - 41.0 °F 19% 29.83 in 10.0 mi North 11.5 mph 19.6 mph N/A   Clear
5:51 PM 86.0 °F - 39.0 °F 19% 29.82 in 10.0 mi North 9.2 mph 18.4 mph N/A   Clear
6:51 PM 82.9 °F - 37.9 °F 20% 29.84 in 10.0 mi North 6.9 mph - N/A   Clear
7:51 PM 80.1 °F - 39.0 °F 23% 29.86 in 10.0 mi North 9.2 mph 18.4 mph N/A   Clear
8:51 PM 79.0 °F - 39.0 °F 24% 29.87 in 10.0 mi Variable 6.9 mph 16.1 mph N/A   Clear
9:51 PM 78.1 °F - 39.0 °F 25% 29.89 in 10.0 mi North 5.8 mph - N/A   Clear
10:51 PM 77.0 °F - 37.9 °F 24% 29.91 in 10.0 mi Variable 5.8 mph - N/A   Clear
11:51 PM 75.9 °F - 37.9 °F 25% 29.92 in 10.0 mi North 4.6 mph - N/A   Clear